[[{"header":{"parameterUnit":"m.s-1","parameterCategory":1,"la1":30.2991,"la2":30.254,"lo1":-89.0895,"lo2":-89.0444,"dy":0.0017,"dx":0.0017,"nx":28,"ny":28,"refTime":"2024-12-17T09:00:00:Z","depth":0,"parameterNumber":2,"parameterNumberName":"U-component_of_WINDS"},"data":[0,0,0,0,0,0,0,0,0,0,0,0,0,0,0,0,0,0,0,0,0,0,0,0,0,0,0,0,0,0,0,0,0,0,0,0,0,0,0,0,0,0,0,0,0,0,0,0,0,0,0,0,0,0,0,0,0,0,-0.1877,-0.1876,0,-0.1718,-0.1716,-0.1714,-0.1583,-0.1581,-0.158,-0.1579,-0.1416,-0.1413,-0.141,0,0,0,0,0,0,0,0,0,0,0,0,0,-0.2071,-0.2068,-0.1878,-0.1876,-0.1874,-0.1718,-0.1716,-0.1714,-0.1583,-0.1581,-0.158,-0.1578,-0.1417,-0.1413,-0.1409,0,0,0,0,0,0,0,0,0,0,0,0,0,-0.1957,-0.2068,-0.1878,-0.179,-0.178,-0.1718,-0.1716,-0.1713,-0.1583,-0.1581,-0.1579,-0.1577,-0.1418,-0.1413,-0.1409,-0.1422,0,0,-0.1395,-0.1393,0,0,0,0,0,0,0,0,-0.1964,-0.195,-0.1805,-0.1796,-0.1785,-0.1668,-0.1724,-0.1615,-0.1584,-0.1658,-0.1579,-0.1576,-0.1501,-0.149,-0.1464,-0.1414,-0.1407,-0.1394,-0.1392,-0.139,-0.1388,0,0,0,0,0,0,0,-0.1972,-0.1956,-0.1814,-0.1803,-0.1791,-0.1759,-0.174,-0.1703,-0.1593,-0.1652,-0.1642,-0.1625,-0.1495,-0.1469,-0.1459,-0.1405,-0.1394,-0.139,-0.1388,-0.1386,-0.136,-0.1362,0,0,0,0,0,0,-0.1993,-0.1964,-0.1819,-0.181,-0.1871,-0.1757,-0.1736,-0.1708,-0.1593,-0.1574,-0.1626,-0.1619,-0.1478,-0.1465,-0.1453,-0.1463,-0.139,-0.1385,-0.1383,-0.1358,-0.1361,-0.1363,0,0,0,0,0,0,-0.1998,-0.1982,-0.1826,-0.1884,-0.1862,-0.1756,-0.1725,-0.1706,-0.1679,-0.1574,-0.1554,-0.162,-0.1476,-0.146,-0.1431,-0.1455,-0.1383,-0.1379,-0.1356,-0.1359,-0.1362,-0.1482,0,0,0,0,0,0,-0.2004,-0.1984,-0.1987,-0.1885,-0.1859,-0.1806,-0.1726,-0.1704,-0.1671,-0.166,-0.1562,-0.1544,-0.1473,-0.1439,-0.1427,-0.1448,-0.1375,-0.1353,-0.1357,-0.1361,-0.1475,-0.1489,-0.15,0,0,0,0,0,-0.2011,-0.2027,-0.1988,-0.1972,-0.1861,-0.1808,-0.1793,-0.1711,-0.1674,-0.1677,-0.161,-0.1547,-0.1455,-0.1437,-0.1422,-0.1442,-0.1351,-0.1356,-0.1361,-0.147,-0.1486,-0.15,0,0,0,0,0,0,-0.2134,-0.2012,-0.1967,-0.195,-0.1891,-0.1786,-0.1787,-0.173,-0.1679,-0.1671,-0.1571,-0.155,-0.1533,-0.1484,-0.1467,-0.145,-0.1395,-0.1397,-0.1483,-0.1498,-0.151,-0.1523,-0.1372,0,0,0,0,0,-0.216,-0.2127,-0.2021,-0.2016,-0.1989,-0.1894,-0.1867,-0.1809,-0.1743,-0.1717,-0.1648,-0.1587,-0.1544,-0.1518,-0.1472,-0.1467,-0.1446,-0.1474,-0.1487,-0.1497,-0.1501,-0.1497,-0.151,-0.1378,-0.1378,-0.1378,0,0,-0.2211,-0.214,-0.2125,-0.2039,-0.1986,-0.1955,-0.1873,-0.1843,-0.1819,-0.1712,-0.1682,-0.163,-0.1555,-0.1539,-0.1528,-0.1498,-0.1532,-0.1503,-0.1513,-0.151,-0.1503,-0.1516,-0.1527,-0.1381,-0.1381,-0.138,0,0,-0.229,-0.2232,-0.2223,-0.2172,-0.2093,-0.203,-0.2028,-0.1932,-0.1893,-0.1861,-0.1781,-0.1752,-0.1679,-0.163,-0.1596,-0.1659,-0.16,-0.1647,-0.1712,-0.171,-0.1721,-0.1729,-0.1754,-0.1764,-0.165,-0.165,-0.1651,0,-0.2364,-0.2314,-0.2225,-0.2201,-0.2166,-0.2069,-0.206,-0.2014,-0.1925,-0.1904,-0.1871,-0.178,-0.1722,-0.1695,-0.1711,-0.1685,-0.1682,-0.1658,-0.1726,-0.1734,-0.1741,-0.1763,-0.1773,-0.1657,-0.1656,-0.1655,-0.1655,0,-0.241,-0.2377,-0.2379,-0.2296,-0.2261,-0.2245,-0.2155,-0.2131,-0.2076,-0.2017,-0.1987,-0.1915,-0.1855,-0.1844,-0.1789,-0.181,-0.1793,-0.1745,-0.1687,-0.1761,-0.1781,-0.1789,-0.1666,-0.1664,-0.1662,-0.166,0,0,-0.2561,-0.2431,-0.2434,-0.2396,-0.2303,-0.2275,-0.2255,-0.2197,-0.2179,-0.2121,-0.2103,-0.2045,-0.2,-0.1962,-0.1901,-0.1899,-0.1957,-0.185,-0.1847,-0.1875,-0.1978,-0.2017,-0.2028,-0.1917,-0.1918,-0.1919,-0.1985,0,-0.2626,-0.2585,-0.2506,-0.249,-0.2459,-0.2367,-0.235,-0.2292,-0.2237,-0.2203,-0.2141,-0.2103,-0.2046,-0.2022,-0.2016,-0.1951,-0.1977,-0.1945,-0.1901,-0.19,-0.1925,-0.2037,-0.2078,-0.2143,-0.1992,-0.1993,-0.1994,0,-0.2696,-0.2645,-0.2627,-0.2538,-0.2522,-0.2508,-0.245,-0.2418,-0.2351,-0.2311,-0.227,-0.2204,-0.2179,-0.2126,-0.2092,-0.2072,-0.205,-0.2016,-0.2016,-0.201,-0.1953,-0.2037,-0.2161,-0.2172,-0.2004,-0.2004,-0.2003,0,-0.2811,-0.2738,-0.2718,-0.2688,-0.2583,-0.2576,-0.2532,-0.2463,-0.2434,-0.2382,-0.2363,-0.231,-0.2281,-0.2242,-0.2164,-0.2132,-0.214,-0.2079,-0.2107,-0.211,-0.2114,-0.2115,-0.2239,-0.2097,-0.2097,-0.2096,-0.2096,0,-0.2893,-0.2886,-0.2768,-0.2757,-0.2747,-0.2656,-0.2649,-0.2596,-0.2536,-0.2513,-0.243,-0.241,-0.2308,-0.2277,-0.2216,-0.2199,-0.2186,-0.2154,-0.2138,-0.2162,-0.2167,-0.2147,-0.2141,-0.2099,-0.2098,-0.2098,-0.2097,0,-0.302,-0.2941,-0.2914,-0.2818,-0.2793,-0.2791,-0.2709,-0.2694,-0.2635,-0.2607,-0.2595,-0.2502,-0.2462,-0.238,-0.2316,-0.2276,-0.2273,-0.2244,-0.2296,-0.2287,-0.2321,-0.232,-0.2438,-0.245,-0.2299,-0.2301,-0.2302,0,-0.3079,-0.3071,-0.2975,-0.2954,-0.2914,-0.2881,-0.2851,-0.2762,-0.2735,-0.266,-0.2655,-0.2608,-0.2566,-0.2506,-0.2433,-0.2385,-0.2355,-0.24,-0.2347,-0.2373,-0.2358,-0.2361,-0.2361,-0.2412,-0.2414,-0.2416,-0.2417,0,-0.3192,-0.3153,-0.3114,-0.3061,-0.3029,-0.2983,-0.2932,-0.292,-0.282,-0.2794,-0.2752,-0.2719,-0.2655,-0.2611,-0.2552,-0.2508,-0.2447,-0.2434,-0.2439,-0.2464,-0.2496,-0.2482,-0.2331,-0.2432,-0.2431,-0.243,-0.2429,-0.2428,-0.3287,-0.3277,-0.3209,-0.3169,-0.3122,-0.3078,-0.306,-0.2999,-0.2963,-0.2905,-0.2854,-0.2818,-0.2753,-0.2668,-0.2628,-0.2598,-0.2568,-0.2574,-0.2576,-0.2579,-0.2591,-0.25,-0.2587,-0.2586,-0.2586,-0.2585,-0.2585,0,-0.3398,-0.335,-0.3313,-0.3247,-0.3216,-0.3161,-0.3103,-0.3081,-0.305,-0.2994,-0.2955,-0.2908,-0.2865,-0.279,-0.2741,-0.2732,-0.2703,-0.2723,-0.2723,-0.2714,-0.2619,-0.2621,-0.2747,-0.2747,-0.2747,-0.2747,-0.2747,-0.2747,-0.3452,-0.3433,-0.3388,-0.3346,-0.3298,-0.3262,-0.3234,-0.3193,-0.3149,-0.3101,-0.3065,-0.3016,-0.2953,-0.2899,-0.2858,-0.2837,-0.2824,-0.2853,-0.2823,-0.2736,-0.2721,-0.2706,-0.2708,-0.285,-0.285,-0.2921,-0.2922,-0.2923]},{"header":{"parameterUnit":"m.s-1","parameterCategory":1,"la1":30.2991,"la2":30.254,"lo1":-89.0895,"lo2":-89.0444,"dy":0.0017,"dx":0.0017,"nx":28,"ny":28,"refTime":"2024-12-17T09:00:00:Z","depth":0,"parameterNumber":3,"parameterNumberName":"V-component_of_WINDS"},"data":[0,0,0,0,0,0,0,0,0,0,0,0,0,0,0,0,0,0,0,0,0,0,0,0,0,0,0,0,0,0,0,0,0,0,0,0,0,0,0,0,0,0,0,0,0,0,0,0,0,0,0,0,0,0,0,0,0,0,-0.7354,-0.7354,0,-0.7314,-0.7313,-0.7313,-0.7266,-0.7265,-0.7264,-0.7264,-0.722,-0.722,-0.7219,0,0,0,0,0,0,0,0,0,0,0,0,0,-0.7388,-0.7388,-0.7354,-0.7354,-0.7353,-0.7314,-0.7313,-0.7313,-0.7266,-0.7265,-0.7264,-0.7263,-0.722,-0.722,-0.7219,0,0,0,0,0,0,0,0,0,0,0,0,0,-0.7363,-0.7388,-0.7354,-0.7325,-0.7322,-0.7314,-0.7313,-0.7313,-0.7266,-0.7265,-0.7264,-0.7263,-0.722,-0.722,-0.7219,-0.7236,0,0,-0.7217,-0.7216,0,0,0,0,0,0,0,0,-0.7365,-0.7362,-0.733,-0.7327,-0.7324,-0.7294,-0.7309,-0.7287,-0.7266,-0.7287,-0.7264,-0.7262,-0.7245,-0.7243,-0.7237,-0.7234,-0.7232,-0.7217,-0.7216,-0.7216,-0.7216,0,0,0,0,0,0,0,-0.7367,-0.7364,-0.7338,-0.7329,-0.7326,-0.7313,-0.7309,-0.7305,-0.7273,-0.7285,-0.7282,-0.7278,-0.7243,-0.7238,-0.7236,-0.7231,-0.7217,-0.7216,-0.7216,-0.7215,-0.7241,-0.7242,0,0,0,0,0,0,-0.7373,-0.7365,-0.7339,-0.7337,-0.7342,-0.7314,-0.7308,-0.7304,-0.7273,-0.7267,-0.7279,-0.7276,-0.724,-0.7237,-0.7234,-0.7253,-0.7216,-0.7215,-0.7215,-0.724,-0.7241,-0.7243,0,0,0,0,0,0,-0.7374,-0.7371,-0.7341,-0.735,-0.7345,-0.7314,-0.731,-0.7304,-0.7299,-0.7268,-0.7262,-0.7279,-0.7239,-0.7235,-0.7236,-0.7251,-0.7215,-0.7214,-0.7239,-0.724,-0.7242,-0.7291,0,0,0,0,0,0,-0.7375,-0.7372,-0.7378,-0.7351,-0.7345,-0.7345,-0.7311,-0.7304,-0.7298,-0.7294,-0.7267,-0.7261,-0.7238,-0.7238,-0.7236,-0.7249,-0.7214,-0.7237,-0.7239,-0.7241,-0.7288,-0.7294,-0.7299,0,0,0,0,0,-0.7376,-0.7393,-0.7379,-0.7376,-0.7353,-0.7346,-0.7342,-0.7316,-0.7299,-0.7306,-0.7286,-0.7262,-0.7249,-0.7238,-0.7235,-0.7249,-0.7236,-0.7239,-0.7241,-0.7285,-0.7293,-0.7299,0,0,0,0,0,0,-0.7422,-0.7389,-0.7373,-0.7381,-0.7367,-0.7338,-0.7345,-0.7324,-0.7314,-0.731,-0.7277,-0.7271,-0.7277,-0.7262,-0.7251,-0.7264,-0.7239,-0.7242,-0.7274,-0.7281,-0.7286,-0.729,-0.7213,0,0,0,0,0,-0.7433,-0.7431,-0.7401,-0.7411,-0.7405,-0.7376,-0.7372,-0.7353,-0.7336,-0.733,-0.731,-0.7294,-0.7287,-0.7283,-0.7274,-0.7285,-0.7279,-0.7293,-0.7299,-0.7304,-0.7306,-0.7312,-0.7319,-0.7251,-0.7251,-0.7251,0,0,-0.7456,-0.7437,-0.7437,-0.742,-0.7406,-0.7405,-0.7371,-0.737,-0.7369,-0.7329,-0.733,-0.7315,-0.7295,-0.7302,-0.7304,-0.729,-0.7324,-0.7307,-0.7311,-0.7311,-0.7316,-0.7322,-0.7328,-0.7253,-0.7252,-0.7252,0,0,-0.7497,-0.7482,-0.7489,-0.7477,-0.7457,-0.7438,-0.744,-0.7414,-0.7403,-0.7403,-0.7374,-0.7371,-0.7359,-0.7347,-0.7339,-0.7375,-0.7354,-0.7373,-0.7404,-0.741,-0.7416,-0.742,-0.7435,-0.744,-0.7376,-0.7376,-0.7376,0,-0.7527,-0.7524,-0.7495,-0.7497,-0.749,-0.7455,-0.7463,-0.7451,-0.743,-0.7426,-0.7411,-0.7396,-0.738,-0.7384,-0.7394,-0.7388,-0.7389,-0.7377,-0.7417,-0.7421,-0.7425,-0.7439,-0.7444,-0.7378,-0.7378,-0.7378,-0.7378,0,-0.7563,-0.7561,-0.7569,-0.7551,-0.7544,-0.7549,-0.7521,-0.7518,-0.7499,-0.7482,-0.7483,-0.7463,-0.745,-0.7449,-0.743,-0.7451,-0.7443,-0.7423,-0.7398,-0.7435,-0.7447,-0.7452,-0.7382,-0.7381,-0.7381,-0.738,0,0,-0.7632,-0.7598,-0.7602,-0.7593,-0.757,-0.7567,-0.757,-0.7559,-0.7558,-0.7543,-0.7545,-0.7536,-0.7518,-0.7509,-0.7488,-0.7494,-0.7526,-0.7473,-0.7472,-0.7485,-0.7549,-0.7566,-0.7572,-0.7511,-0.7512,-0.7513,-0.7551,0,-0.7669,-0.7673,-0.7648,-0.7658,-0.7657,-0.7624,-0.7626,-0.7612,-0.7595,-0.7591,-0.7572,-0.7567,-0.7543,-0.7537,-0.7541,-0.7522,-0.7539,-0.7518,-0.7513,-0.7513,-0.7521,-0.7578,-0.7595,-0.7633,-0.7556,-0.7557,-0.7557,0,-0.7714,-0.7704,-0.7715,-0.7692,-0.769,-0.7693,-0.7681,-0.7677,-0.766,-0.7648,-0.7638,-0.7615,-0.7616,-0.7591,-0.7592,-0.7579,-0.7575,-0.7565,-0.7566,-0.7566,-0.7539,-0.7581,-0.7644,-0.765,-0.7564,-0.7564,-0.7563,0,-0.7765,-0.7754,-0.776,-0.7753,-0.7726,-0.7729,-0.7717,-0.7699,-0.7695,-0.7684,-0.768,-0.7669,-0.7664,-0.7656,-0.763,-0.7614,-0.7635,-0.7607,-0.7625,-0.7626,-0.7632,-0.7632,-0.7697,-0.7627,-0.7627,-0.7627,-0.7627,0,-0.7811,-0.7819,-0.7783,-0.7786,-0.7794,-0.7765,-0.7774,-0.7759,-0.7743,-0.7743,-0.7713,-0.7714,-0.7679,-0.7676,-0.7655,-0.7661,-0.7657,-0.7648,-0.7643,-0.7652,-0.7653,-0.765,-0.7647,-0.7628,-0.7628,-0.7628,-0.7627,0,-0.787,-0.7846,-0.785,-0.7824,-0.7817,-0.7825,-0.7802,-0.7805,-0.7786,-0.7787,-0.7785,-0.7756,-0.7751,-0.7725,-0.7712,-0.7699,-0.7711,-0.77,-0.7718,-0.7714,-0.7735,-0.7734,-0.7801,-0.7809,-0.7732,-0.7733,-0.7734,0,-0.7902,-0.7907,-0.7882,-0.7881,-0.7871,-0.7868,-0.7863,-0.7834,-0.7831,-0.7812,-0.7817,-0.7809,-0.7802,-0.7794,-0.7772,-0.7763,-0.7752,-0.7776,-0.7751,-0.776,-0.7755,-0.7755,-0.7756,-0.7782,-0.7783,-0.7784,-0.7785,0,-0.7961,-0.7948,-0.7943,-0.7934,-0.7929,-0.792,-0.791,-0.791,-0.7878,-0.7875,-0.787,-0.7864,-0.7852,-0.7845,-0.7833,-0.782,-0.7798,-0.7793,-0.7797,-0.7807,-0.7818,-0.7814,-0.7734,-0.7792,-0.7791,-0.7791,-0.779,-0.779,-0.8008,-0.8012,-0.7996,-0.7991,-0.798,-0.7971,-0.7972,-0.7954,-0.795,-0.7939,-0.7921,-0.7919,-0.7902,-0.7883,-0.7873,-0.787,-0.7857,-0.7862,-0.7864,-0.7866,-0.7871,-0.7817,-0.7867,-0.7867,-0.7867,-0.7867,-0.7866,0,-0.8067,-0.8055,-0.8051,-0.8037,-0.8034,-0.8013,-0.8,-0.7998,-0.7997,-0.7983,-0.7977,-0.7971,-0.7965,-0.7943,-0.7934,-0.7936,-0.7925,-0.7935,-0.7935,-0.7933,-0.7883,-0.7881,-0.7944,-0.7944,-0.7944,-0.7944,-0.7944,-0.7944,-0.8097,-0.8104,-0.809,-0.809,-0.8078,-0.8076,-0.8071,-0.8062,-0.8052,-0.8047,-0.8042,-0.8028,-0.8011,-0.8001,-0.7994,-0.7987,-0.7986,-0.7999,-0.799,-0.7944,-0.7936,-0.7929,-0.7928,-0.7999,-0.7999,-0.804,-0.8041,-0.8041]}]]